Temp
63 63 64 64 65 65 65 65 65 65 65 65 65 65 66 66 66 65 65 64 64 64 64 65 65 64 64 65 65 65 65 64 63 62 61 61 60 60 62 62 62 62 62 61 59 61 58 57 58 61 62 62 62 63 63 64 63 63 63 63 63 63 63
63 63 64 64 64 65 64 64 64 64 63 64 65 65 65 66 66 65 65 65 64 64 64 65 65 66 65 65 64 64 63 63 64 64 62 61 61 60 61 61 62 61 61 61 61 59 56 57 56 58 59 61 61 61 62 63 63 63 63 64 65 65 63
63 63 64 63 63 63 63 63 63 63 62 63 64 64 64 64 64 65 65 64 63 64 64 64 65 65 66 65 64 64 65 64 63 63 62 62 62 62 61 62 61 61 61 60 59 59 58 59 57 58 60 58 58 60 61 61 62 63 64 64 64 65 64
63 63 62 62 62 63 62 62 63 63 62 63 63 63 63 64 64 65 64 64 64 64 64 64 64 65 65 65 64 64 64 64 63 63 63 63 63 62 62 61 61 61 61 59 59 59 59 58 58 58 60 61 60 59 60 62 62 63 64 64 64 64 64
63 62 61 61 62 62 62 62 62 62 62 62 62 62 62 63 63 63 64 64 64 63 63 63 63 64 65 64 63 63 63 64 64 64 63 63 63 62 62 62 63 63 62 62 62 61 60 60 61 59 58 60 61 61 62 62 63 63 64 64 64 64 64
62 61 61 62 62 62 63 62 62 61 62 62 62 62 62 62 62 63 63 63 63 63 63 64 64 64 65 65 64 64 63 63 63 63 63 63 63 62 62 63 63 63 62 63 63 63 63 62 61 58 59 61 59 59 61 61 60 63 64 64 65 64 65
60 61 62 62 62 61 63 63 63 62 62 62 62 62 63 63 63 63 63 63 63 63 63 63 63 63 64 64 63 63 63 64 64 63 63 64 63 63 64 63 63 63 63 63 63 63 62 61 59 59 58 58 59 59 60 60 62 60 61 63 64 64 65
61 62 62 63 62 62 62 62 63 63 62 63 63 63 63 63 63 63 63 62 62 63 63 63 63 63 63 64 64 64 64 64 64 63 63 63 63 63 63 63 63 63 63 63 63 63 64 63 63 60 59 56 56 57 58 60 61 61 62 63 64 63 64
61 61 61 62 63 63 62 62 62 62 62 63 63 64 64 63 63 62 63 62 63 63 63 63 63 63 63 63 63 63 63 64 64 63 63 63 63 64 64 64 63 63 64 63 64 63 63 64 63 62 60 60 57 54 56 57 59 60 65 61 62 64 65
58 58 59 59 60 62 61 61 61 62 62 62 62 63 63 64 63 63 63 62 62 62 62 63 63 63 63 63 63 63 63 63 63 62 63 63 63 63 63 63 63 63 63 63 64 63 63 63 63 62 61 61 61 57 54 55 57 58 62 64 60 62 65
58 58 58 58 59 58 58 60 62 61 61 62 62 62 63 63 63 64 63 63 63 62 62 62 62 62 63 63 63 63 63 63 63 63 63 63 63 63 63 63 63 62 63 63 63 63 63 62 61 61 61 61 60 59 58 55 56 59 60 62 64 61 64
58 58 57 58 57 57 58 59 60 60 61 61 61 61 61 62 62 62 62 62 63 62 62 62 62 62 63 63 63 62 63 63 62 62 63 63 63 63 62 62 63 62 63 63 63 63 63 62 61 61 61 61 60 62 60 59 55 58 62 60 63 65 64
57 57 57 57 58 58 59 59 59 58 58 60 60 60 60 60 61 61 61 61 62 62 62 62 62 62 63 62 62 62 63 63 62 62 62 63 63 63 63 62 62 62 62 62 62 62 62 62 62 61 61 61 60 61 60 58 58 57 61 63 62 64 66
55 56 56 58 58 58 58 59 59 59 59 57 58 58 58 58 60 59 60 60 57 56 56 57 58 60 62 62 62 62 63 62 62 62 62 62 63 63 63 63 63 63 63 62 62 62 62 62 62 62 62 61 60 60 60 58 57 57 58 60 60 63 66
55 56 56 57 57 57 57 57 58 58 57 57 57 56 56 57 58 57 58 58 55 55 53 54 53 53 54 56 59 62 62 62 61 61 61 62 62 63 63 62 63 63 63 62 62 62 62 62 62 61 61 61 60 60 61 59 58 57 57 58 59 62 63
56 56 56 56 56 56 57 57 57 56 56 56 56 56 55 55 55 55 56 56 53 53 52 52 51 51 51 52 53 55 60 62 62 62 61 61 62 63 62 62 62 63 63 62 62 62 62 62 62 62 61 61 61 60 61 61 59 57 57 57 59 60 61
56 56 56 56 56 56 56 56 56 55 55 55 54 55 55 54 54 53 53 54 53 51 50 50 49 49 49 49 50 51 53 57 61 62 61 61 62 62 62 62 62 62 62 61 61 61 61 62 61 61 62 61 61 61 61 60 60 58 57 57 58 60 61
55 55 55 55 55 55 55 55 55 55 54 54 53 53 53 54 53 52 51 52 52 50 49 49 48 47 47 48 48 49 51 53 56 60 62 62 62 62 62 62 62 63 62 61 61 61 61 61 61 61 61 61 61 61 60 60 60 60 59 58 58 59 60
55 55 55 55 55 55 55 54 54 54 53 51 51 51 51 52 52 51 51 51 52 51 49 48 47 46 46 46 47 48 49 51 54 57 61 61 61 62 62 62 63 63 62 61 61 61 61 61 61 61 61 61 61 60 59 59 59 59 59 59 59 58 59
54 54 54 54 53 53 53 53 53 52 52 50 49 49 51 51 51 51 50 51 50 50 49 48 46 45 45 45 45 46 47 49 52 54 58 61 62 62 62 62 62 63 62 62 61 61 61 61 61 61 61 60 60 60 59 59 59 59 59 58 58 59 58
53 53 53 52 52 52 52 51 51 51 51 50 49 49 49 49 50 50 50 50 50 50 48 47 46 45 44 44 44 44 45 47 49 52 55 59 61 61 62 63 63 63 63 62 62 61 61 61 61 60 60 60 60 59 59 58 58 58 58 58 58 57 57
53 52 52 52 51 51 50 50 50 50 50 49 49 49 49 48 48 49 49 49 49 49 48 46 45 44 42 42 43 43 44 46 47 50 53 57 61 61 61 61 62 62 63 64 59 59 60 60 61 60 60 60 59 59 59 58 58 58 58 58 57 58 57
52 52 52 51 50 50 50 50 49 49 49 49 48 49 48 48 48 48 48 48 48 48 47 46 46 43 43 42 42 43 44 45 46 49 52 55 59 61 61 61 62 63 60 59 57 53 52 53 57 61 61 60 59 59 59 58 58 58 58 57 57 57 56
50 50 50 50 49 49 49 49 49 48 48 48 48 48 47 46 46 47 47 47 47 46 46 46 43 40 40 41 43 43 43 44 45 47 51 54 56 58 60 61 61 62 60 58 57 52 50 50 50 52 53 55 58 60 59 58 58 58 58 58 58 57 57
50 50 50 49 49 48 48 48 48 48 47 47 47 47 46 45 45 45 46 46 46 46 46 45 40 41 40 40 42 44 45 45 46 48 50 53 56 58 59 60 61 61 62 61 61 59 54 49 48 48 48 50 50 50 53 58 58 56 57 57 57 57 58
49 49 49 49 48 48 47 47 46 47 46 47 46 46 45 45 44 45 45 45 45 46 46 43 40 40 40 40 40 44 49 50 50 50 51 54 56 57 59 59 59 60 61 61 62 61 60 58 50 47 47 47 49 48 47 48 51 59 59 58 58 57 57
47 47 48 48 48 47 46 46 45 44 45 45 45 45 45 44 44 43 44 45 45 46 46 43 40 40 40 40 40 43 48 51 52 53 53 52 52 51 52 55 58 59 59 60 60 60 60 59 59 56 54 54 55 53 48 48 47 50 55 59 59 58 59
46 46 47 47 46 46 46 45 45 45 44 43 43 43 43 43 44 43 43 43 44 45 45 42 40 40 40 40 40 44 47 50 50 50 50 50 50 49 50 49 50 53 58 59 59 59 59 59 58 56 56 56 57 56 55 55 55 55 56 59 59 60 60
45 45 46 45 45 45 45 44 44 44 44 43 43 43 42 42 42 42 42 42 43 43 44 42 40 40 40 39 41 46 46 48 47 47 48 48 48 48 48 48 48 48 49 54 55 50 52 59 58 56 56 54 50 48 47 45 42 43 52 58 60 60 60
45 44 44 44 44 43 43 43 43 44 42 42 42 42 42 42 42 42 42 42 42 42 43 42 40 40 40 39 42 45 46 46 46 45 46 46 46 46 47 48 47 45 45 47 45 42 45 51 58 57 55 53 51 49 47 47 41 40 39 39 41 43 43
44 44 43 43 42 42 42 43 42 43 41 41 41 41 42 42 42 42 42 41 43 40 41 42 41 40 40 40 41 44 44 45 45 44 44 45 45 45 46 48 48 44 42 43 41 39 40 50 58 56 55 52 50 48 47 49 49 46 42 43 42 41 41
43 43 42 42 42 42 41 42 42 42 41 41 41 40 42 41 41 41 41 41 45 41 41 42 41 39 40 40 41 43 43 43 44 43 43 43 44 44 44 45 45 43 41 40 38 38 39 48 58 56 53 52 50 48 48 50 50 49 50 50 49 49 48
43 42 42 42 42 42 42 42 41 41 41 40 40 40 40 40 39 40 40 41 41 41 41 41 41 39 40 40 40 42 43 41 42 42 42 43 42 42 42 42 43 41 38 38 38 38 39 41 56 54 53 52 49 48 51 51 50 49 49 48 48 48 47
43 42 42 41 42 42 41 40 41 41 40 40 40 40 40 40 39 39 39 40 40 40 42 41 40 40 39 40 40 40 41 41 41 42 41 41 41 40 40 41 42 41 39 39 38 38 40 42 47 53 53 51 50 49 48 49 48 47 48 47 47 47 47
44 44 42 42 40 40 40 41 41 40 39 40 40 40 39 39 39 38 39 39 40 39 41 43 40 40 39 40 40 40 40 40 40 42 41 40 40 40 40 40 41 40 39 39 39 39 39 41 44 51 48 43 42 44 49 49 49 48 47 47 46 46 46
43 44 42 41 40 39 39 40 40 39 39 40 40 39 39 39 38 38 38 39 39 39 39 41 41 40 40 39 39 39 39 39 39 42 41 40 39 39 41 41 42 41 39 39 40 39 39 40 42 42 40 41 41 42 45 48 47 47 46 46 46 45 45
41 40 40 40 39 39 38 39 39 39 38 38 39 39 39 38 38 37 37 37 38 39 39 39 40 40 39 39 39 39 39 39 39 40 42 40 40 40 39 40 40 39 40 39 40 40 40 39 40 39 40 41 42 43 46 46 45 45 44 44 44 44 44
MSLP
1018.04 1018.00 1017.60 1017.36 1017.00 1016.76 1016.60 1016.52 1016.44 1016.36 1016.36 1016.52 1016.72 1016.76 1016.64 1016.60 1016.48 1016.44 1016.36 1016.40 1016.36 1016.24 1016.24 1016.28 1016.16 1016.04 1016.12 1016.16 1016.20 1016.08 1016.20 1016.24 1016.36 1016.44 1016.32 1016.44 1016.76 1016.68 1016.52 1016.72 1016.80 1016.88 1016.84 1016.92 1016.88 1016.92 1017.44 1018.40 1018.44 1018.12 1018.08 1018.24 1018.32 1018.28 1018.32 1018.48 1018.56 1018.60 1018.72 1018.80 1018.84 1018.92 1019.08
1018.00 1017.92 1017.60 1017.32 1017.16 1016.92 1016.84 1016.68 1016.60 1016.60 1016.60 1016.52 1016.48 1016.52 1016.48 1016.44 1016.36 1016.32 1016.28 1016.24 1016.24 1016.12 1015.96 1015.88 1015.76 1015.68 1015.76 1015.84 1015.88 1016.00 1016.04 1016.12 1016.00 1015.92 1016.24 1016.48 1016.60 1016.76 1016.76 1016.60 1016.72 1016.88 1016.96 1016.96 1016.96 1016.84 1017.08 1017.80 1018.04 1018.08 1018.20 1018.24 1018.36 1018.28 1018.28 1018.24 1018.24 1018.24 1018.36 1018.44 1018.48 1018.56 1018.80
1018.04 1017.84 1017.64 1017.56 1017.36 1017.16 1017.12 1016.96 1016.88 1016.84 1016.76 1016.60 1016.44 1016.36 1016.36 1016.32 1016.28 1016.24 1016.16 1016.08 1016.04 1015.84 1015.68 1015.56 1015.52 1015.56 1015.52 1015.56 1015.60 1015.64 1015.60 1015.76 1015.96 1016.12 1016.20 1016.24 1016.36 1016.52 1016.84 1016.64 1016.60 1016.72 1017.04 1017.20 1017.24 1017.08 1017.00 1016.92 1017.36 1017.80 1017.88 1018.16 1018.44 1018.12 1018.08 1018.16 1018.08 1018.04 1018.08 1018.20 1018.32 1018.36 1018.52
1018.24 1018.08 1017.96 1017.84 1017.64 1017.44 1017.40 1017.32 1017.24 1017.08 1016.92 1016.72 1016.52 1016.40 1016.32 1016.20 1016.16 1016.12 1016.08 1015.96 1015.80 1015.68 1015.56 1015.48 1015.44 1015.32 1015.28 1015.40 1015.44 1015.52 1015.48 1015.56 1015.76 1015.84 1015.88 1015.96 1016.08 1016.32 1016.44 1016.52 1016.60 1016.32 1016.36 1016.76 1016.68 1016.72 1016.64 1016.84 1017.12 1017.32 1017.48 1017.64 1017.68 1018.04 1017.84 1017.72 1017.84 1017.80 1017.84 1017.96 1018.08 1018.12 1018.20
1018.40 1018.40 1018.44 1018.40 1018.16 1017.96 1017.72 1017.60 1017.44 1017.28 1017.16 1016.96 1016.72 1016.52 1016.36 1016.24 1016.20 1016.12 1016.00 1015.88 1015.76 1015.64 1015.52 1015.40 1015.28 1015.16 1015.04 1015.08 1015.20 1015.32 1015.32 1015.20 1015.20 1015.36 1015.44 1015.56 1015.64 1015.72 1015.84 1015.96 1016.00 1016.08 1016.12 1016.12 1015.84 1015.96 1016.24 1016.16 1016.20 1016.64 1017.16 1017.32 1017.64 1017.52 1017.32 1017.56 1017.56 1017.64 1017.68 1017.72 1017.68 1017.76 1017.88
1018.56 1018.64 1018.64 1018.56 1018.40 1018.24 1017.96 1017.84 1017.68 1017.56 1017.32 1017.16 1016.96 1016.76 1016.44 1016.28 1016.16 1016.04 1015.92 1015.80 1015.60 1015.48 1015.36 1015.28 1015.12 1015.04 1015.00 1014.88 1014.88 1014.96 1015.04 1015.04 1014.96 1015.00 1015.20 1015.20 1015.20 1015.36 1015.28 1015.24 1015.48 1015.72 1015.76 1015.56 1015.64 1015.56 1015.56 1015.64 1015.92 1016.52 1016.72 1016.68 1017.16 1017.36 1017.24 1017.44 1017.68 1017.40 1017.28 1017.36 1017.36 1017.40 1017.52
1018.80 1018.76 1018.72 1018.72 1018.60 1018.36 1018.16 1018.04 1017.88 1017.72 1017.56 1017.32 1017.04 1016.84 1016.52 1016.28 1016.08 1015.96 1015.80 1015.56 1015.40 1015.32 1015.28 1015.16 1015.04 1015.00 1014.96 1014.96 1014.88 1014.88 1014.84 1014.72 1014.76 1014.84 1014.88 1014.84 1014.88 1014.84 1014.92 1015.08 1015.12 1015.24 1015.32 1015.40 1015.68 1015.52 1015.32 1015.64 1016.00 1016.16 1016.56 1016.80 1016.68 1017.00 1017.00 1017.16 1017.12 1017.56 1017.32 1017.08 1017.00 1017.08 1017.20
1018.84 1018.80 1018.76 1018.72 1018.60 1018.48 1018.32 1018.16 1017.92 1017.68 1017.52 1017.28 1017.04 1016.72 1016.40 1016.24 1016.08 1015.88 1015.72 1015.60 1015.44 1015.32 1015.20 1015.08 1014.92 1014.80 1014.76 1014.76 1014.72 1014.68 1014.64 1014.56 1014.52 1014.56 1014.64 1014.76 1014.84 1014.76 1014.72 1014.72 1014.68 1014.68 1014.76 1014.92 1015.20 1015.36 1014.92 1014.84 1015.00 1015.44 1016.00 1017.04 1017.20 1017.00 1017.04 1016.88 1017.00 1016.92 1016.64 1016.68 1016.64 1016.84 1016.84
1018.92 1018.84 1018.84 1018.76 1018.64 1018.52 1018.44 1018.24 1018.00 1017.72 1017.52 1017.32 1017.00 1016.76 1016.48 1016.28 1016.08 1015.92 1015.72 1015.56 1015.36 1015.24 1015.08 1014.96 1014.84 1014.72 1014.60 1014.60 1014.56 1014.52 1014.48 1014.36 1014.40 1014.36 1014.32 1014.40 1014.48 1014.44 1014.36 1014.28 1014.36 1014.36 1014.40 1014.56 1014.76 1014.76 1014.64 1014.28 1014.44 1014.84 1015.20 1015.76 1016.48 1017.20 1017.04 1017.04 1016.84 1016.64 1016.16 1016.60 1016.52 1016.36 1016.52
1019.04 1019.04 1019.00 1018.96 1018.76 1018.60 1018.40 1018.20 1018.00 1017.80 1017.56 1017.36 1017.20 1016.92 1016.68 1016.36 1016.16 1016.00 1015.80 1015.56 1015.36 1015.20 1015.04 1014.88 1014.76 1014.64 1014.52 1014.48 1014.40 1014.32 1014.24 1014.12 1014.16 1014.24 1014.12 1014.08 1014.00 1014.12 1014.16 1014.16 1014.16 1014.20 1014.20 1014.32 1014.40 1014.40 1014.36 1014.28 1014.12 1014.44 1014.76 1015.20 1015.32 1016.08 1016.88 1016.88 1016.64 1016.48 1016.04 1015.88 1016.40 1016.24 1016.20
1019.28 1019.20 1019.08 1018.96 1018.88 1018.76 1018.56 1018.32 1018.04 1017.88 1017.76 1017.64 1017.48 1017.20 1016.88 1016.64 1016.40 1016.12 1015.96 1015.68 1015.44 1015.24 1015.08 1014.88 1014.72 1014.52 1014.44 1014.36 1014.20 1014.04 1013.88 1013.80 1013.76 1013.60 1013.56 1013.64 1013.68 1013.80 1013.92 1013.96 1013.92 1013.88 1013.80 1013.88 1013.96 1014.00 1014.12 1014.28 1014.36 1014.52 1014.60 1014.88 1015.36 1015.60 1015.68 1016.20 1016.08 1015.64 1015.64 1015.52 1015.48 1015.88 1016.00
1019.52 1019.40 1019.28 1019.16 1019.04 1018.96 1018.76 1018.56 1018.36 1018.20 1017.96 1017.80 1017.64 1017.44 1017.20 1016.92 1016.68 1016.44 1016.16 1015.84 1015.52 1015.28 1015.04 1014.88 1014.68 1014.48 1014.28 1014.16 1014.00 1013.88 1013.72 1013.68 1013.56 1013.36 1013.16 1013.16 1013.20 1013.32 1013.44 1013.52 1013.52 1013.52 1013.44 1013.56 1013.60 1013.64 1013.76 1014.16 1014.64 1014.52 1014.40 1014.64 1015.20 1014.84 1014.92 1015.16 1015.72 1015.12 1014.88 1015.36 1015.12 1015.08 1015.52
1019.88 1019.76 1019.64 1019.48 1019.32 1019.16 1019.00 1018.80 1018.64 1018.48 1018.36 1018.24 1018.08 1017.84 1017.60 1017.32 1017.04 1016.84 1016.56 1016.24 1015.84 1015.52 1015.20 1014.96 1014.72 1014.44 1014.20 1014.04 1013.88 1013.76 1013.56 1013.44 1013.36 1013.24 1013.12 1012.96 1012.84 1012.88 1013.08 1013.20 1013.20 1013.20 1013.20 1013.28 1013.28 1013.44 1013.56 1013.92 1014.40 1014.40 1014.40 1014.72 1014.92 1014.76 1014.56 1014.84 1015.00 1015.04 1014.68 1014.60 1014.80 1014.96 1015.08
1020.28 1020.12 1019.96 1019.80 1019.68 1019.52 1019.32 1019.12 1018.88 1018.76 1018.64 1018.60 1018.48 1018.24 1018.04 1017.80 1017.40 1017.28 1016.92 1016.68 1016.88 1016.68 1016.28 1015.92 1015.48 1014.92 1014.36 1014.04 1013.80 1013.60 1013.36 1013.20 1013.16 1013.00 1012.92 1012.80 1012.68 1012.64 1012.68 1012.80 1012.76 1012.72 1012.76 1013.00 1013.04 1013.20 1013.32 1013.72 1014.04 1014.12 1014.20 1014.48 1014.76 1014.76 1014.56 1014.64 1014.96 1015.04 1014.88 1014.60 1014.76 1014.88 1014.88
1020.64 1020.48 1020.28 1020.12 1019.96 1019.80 1019.60 1019.40 1019.20 1019.08 1018.96 1018.92 1018.84 1018.68 1018.44 1018.20 1017.92 1017.68 1017.32 1017.16 1017.36 1017.04 1016.88 1016.60 1016.32 1015.96 1015.48 1014.96 1014.24 1013.56 1013.16 1013.00 1012.92 1012.80 1012.76 1012.72 1012.60 1012.48 1012.48 1012.56 1012.52 1012.52 1012.56 1012.68 1012.72 1012.88 1013.04 1013.44 1013.68 1013.88 1013.96 1014.12 1014.44 1014.60 1014.36 1014.52 1014.72 1014.96 1015.12 1014.92 1014.84 1015.00 1015.08
1020.88 1020.68 1020.48 1020.36 1020.24 1020.08 1019.92 1019.72 1019.52 1019.44 1019.32 1019.20 1019.12 1018.96 1018.84 1018.60 1018.32 1018.08 1017.80 1017.52 1017.64 1017.40 1017.40 1017.08 1016.80 1016.48 1016.08 1015.68 1015.20 1014.52 1013.56 1013.00 1012.76 1012.64 1012.56 1012.48 1012.40 1012.32 1012.24 1012.20 1012.16 1012.16 1012.28 1012.48 1012.56 1012.60 1012.76 1013.08 1013.32 1013.52 1013.68 1013.84 1014.12 1014.16 1014.16 1013.92 1014.24 1014.72 1014.80 1014.88 1014.76 1015.24 1015.68
1021.04 1020.88 1020.76 1020.64 1020.56 1020.40 1020.24 1020.08 1019.84 1019.76 1019.64 1019.48 1019.32 1019.12 1018.96 1018.80 1018.60 1018.48 1018.24 1017.88 1017.88 1017.92 1017.80 1017.56 1017.28 1017.04 1016.76 1016.28 1015.76 1015.20 1014.60 1013.72 1012.88 1012.52 1012.44 1012.36 1012.28 1012.20 1012.08 1012.04 1011.88 1011.96 1012.16 1012.40 1012.44 1012.48 1012.56 1012.76 1013.00 1013.16 1013.36 1013.48 1013.56 1013.60 1013.56 1013.60 1013.76 1014.12 1014.32 1014.64 1014.72 1014.56 1014.68
1021.32 1021.16 1021.08 1020.96 1020.88 1020.72 1020.56 1020.40 1020.20 1020.08 1019.96 1019.88 1019.72 1019.44 1019.20 1018.96 1018.80 1018.72 1018.52 1018.36 1018.12 1018.28 1018.20 1018.00 1017.76 1017.40 1017.04 1016.72 1016.28 1015.68 1015.04 1014.40 1013.56 1012.68 1012.28 1012.12 1012.04 1012.00 1011.92 1011.80 1011.60 1011.72 1011.96 1012.12 1012.08 1012.12 1012.24 1012.40 1012.56 1012.72 1012.92 1012.92 1012.96 1013.04 1013.40 1013.44 1013.56 1013.40 1013.56 1013.88 1014.36 1014.48 1014.52
1021.56 1021.44 1021.32 1021.20 1021.12 1021.00 1020.80 1020.64 1020.56 1020.48 1020.40 1020.36 1020.12 1019.92 1019.64 1019.40 1019.24 1019.16 1019.00 1018.76 1018.44 1018.40 1018.36 1018.20 1018.04 1017.80 1017.44 1016.92 1016.44 1015.92 1015.32 1014.60 1013.84 1013.08 1012.28 1011.92 1011.76 1011.68 1011.64 1011.52 1011.44 1011.52 1011.64 1011.76 1011.72 1011.76 1011.92 1012.08 1012.16 1012.20 1012.36 1012.56 1012.76 1012.84 1012.92 1013.04 1013.20 1013.12 1013.16 1013.36 1013.68 1014.36 1014.60
1021.80 1021.68 1021.56 1021.48 1021.40 1021.24 1021.12 1021.00 1020.84 1020.80 1020.72 1020.64 1020.48 1020.24 1020.00 1019.76 1019.60 1019.44 1019.28 1019.00 1018.72 1018.52 1018.40 1018.24 1018.12 1017.92 1017.56 1017.12 1016.68 1016.16 1015.48 1014.76 1013.96 1013.28 1012.52 1011.84 1011.52 1011.40 1011.36 1011.32 1011.28 1011.24 1011.32 1011.36 1011.48 1011.56 1011.60 1011.68 1011.84 1012.00 1012.08 1012.28 1012.32 1012.44 1012.60 1012.84 1013.04 1013.08 1013.08 1013.24 1013.48 1013.52 1013.92
1021.96 1021.88 1021.80 1021.72 1021.64 1021.52 1021.44 1021.28 1021.20 1021.12 1020.96 1020.84 1020.72 1020.56 1020.36 1020.16 1019.96 1019.68 1019.44 1019.20 1018.96 1018.72 1018.56 1018.36 1018.12 1017.92 1017.72 1017.40 1016.76 1016.16 1015.64 1014.92 1014.12 1013.36 1012.64 1011.88 1011.40 1011.20 1011.12 1011.00 1010.92 1010.84 1010.84 1010.96 1011.16 1011.28 1011.32 1011.32 1011.44 1011.68 1011.80 1012.04 1012.28 1012.28 1012.32 1012.64 1012.92 1013.00 1013.08 1013.16 1013.16 1013.52 1013.84
1022.08 1022.00 1021.92 1021.88 1021.84 1021.80 1021.72 1021.60 1021.44 1021.32 1021.20 1021.12 1020.96 1020.84 1020.64 1020.40 1020.12 1019.80 1019.56 1019.36 1019.12 1018.92 1018.72 1018.64 1018.48 1018.24 1017.80 1017.08 1016.76 1016.24 1015.60 1015.04 1014.44 1013.52 1012.60 1011.84 1011.24 1011.08 1011.00 1010.92 1010.76 1010.72 1010.72 1010.76 1010.84 1010.92 1010.88 1010.96 1011.20 1011.32 1011.28 1011.48 1011.68 1011.80 1011.96 1012.32 1012.56 1012.72 1012.84 1012.84 1013.00 1013.12 1013.56
1022.24 1022.16 1022.08 1022.04 1022.08 1022.04 1021.96 1021.80 1021.68 1021.52 1021.40 1021.32 1021.20 1021.00 1020.84 1020.68 1020.44 1020.16 1019.88 1019.60 1019.36 1019.16 1019.00 1018.84 1018.68 1018.40 1018.04 1017.56 1016.76 1016.12 1015.56 1015.00 1014.44 1013.72 1012.84 1011.88 1011.12 1010.84 1010.84 1010.80 1010.60 1010.40 1010.36 1010.44 1010.48 1010.56 1010.64 1010.76 1010.76 1010.60 1010.60 1011.04 1011.36 1011.56 1011.72 1012.00 1012.24 1012.32 1012.48 1012.68 1012.68 1013.00 1013.44
1022.44 1022.40 1022.32 1022.28 1022.24 1022.20 1022.16 1022.04 1021.88 1021.72 1021.60 1021.48 1021.36 1021.20 1021.04 1020.88 1020.72 1020.56 1020.32 1020.04 1019.76 1019.52 1019.32 1019.12 1018.84 1018.32 1017.76 1017.24 1016.68 1015.96 1015.44 1014.88 1014.44 1013.84 1013.04 1012.20 1011.40 1010.92 1010.60 1010.40 1010.20 1010.00 1010.04 1009.96 1009.88 1009.96 1010.12 1010.20 1010.32 1010.44 1010.56 1010.60 1010.60 1010.80 1011.32 1011.88 1012.16 1012.12 1012.16 1012.28 1012.32 1012.56 1012.64
1022.72 1022.68 1022.60 1022.56 1022.48 1022.40 1022.36 1022.20 1022.08 1021.96 1021.84 1021.68 1021.56 1021.40 1021.24 1021.16 1021.04 1020.84 1020.60 1020.36 1020.12 1019.88 1019.52 1019.28 1018.84 1018.16 1017.52 1016.92 1016.40 1015.72 1015.12 1014.64 1014.12 1013.64 1013.08 1012.44 1011.76 1011.12 1010.56 1010.12 1009.80 1009.72 1009.80 1009.80 1009.68 1009.68 1009.80 1009.92 1010.04 1010.28 1010.48 1010.28 1010.24 1010.40 1010.52 1010.92 1011.44 1012.00 1012.12 1012.08 1012.08 1012.16 1012.32
1023.16 1023.04 1022.92 1022.84 1022.76 1022.68 1022.56 1022.44 1022.32 1022.20 1022.04 1021.92 1021.80 1021.64 1021.56 1021.40 1021.24 1021.08 1020.84 1020.60 1020.36 1020.04 1019.68 1019.40 1018.92 1018.28 1017.60 1016.92 1016.24 1015.48 1014.68 1014.08 1013.52 1013.12 1012.84 1012.36 1011.88 1011.36 1010.64 1010.12 1009.92 1009.60 1009.52 1009.52 1009.48 1009.44 1009.52 1009.64 1009.84 1010.08 1010.48 1010.48 1010.20 1010.20 1010.48 1010.56 1010.56 1010.76 1011.12 1011.52 1011.68 1011.72 1011.64
1023.52 1023.44 1023.32 1023.16 1023.04 1022.96 1022.84 1022.76 1022.64 1022.52 1022.36 1022.16 1022.00 1021.92 1021.80 1021.68 1021.52 1021.32 1021.12 1020.88 1020.60 1020.24 1019.84 1019.60 1019.16 1018.44 1017.76 1017.08 1016.28 1015.56 1014.96 1014.24 1013.76 1013.28 1013.08 1012.92 1012.72 1012.40 1011.76 1010.92 1010.00 1009.60 1009.48 1009.40 1009.32 1009.32 1009.36 1009.44 1009.60 1009.92 1010.32 1010.64 1010.76 1010.68 1010.52 1010.24 1010.40 1010.64 1010.88 1011.04 1011.16 1011.20 1011.08
1023.88 1023.80 1023.64 1023.48 1023.36 1023.28 1023.20 1023.08 1022.88 1022.72 1022.60 1022.44 1022.28 1022.12 1022.04 1021.92 1021.76 1021.60 1021.44 1021.16 1020.80 1020.44 1020.08 1019.84 1019.36 1018.72 1018.00 1017.28 1016.44 1015.72 1015.20 1014.60 1014.32 1014.08 1013.76 1013.48 1013.20 1012.92 1012.40 1011.92 1011.44 1010.76 1009.88 1009.40 1009.24 1009.16 1009.16 1009.20 1009.44 1009.72 1009.92 1010.12 1010.40 1010.52 1010.44 1010.44 1010.64 1010.72 1010.64 1010.64 1010.76 1010.52 1010.36
1024.20 1024.08 1023.96 1023.80 1023.72 1023.60 1023.52 1023.40 1023.28 1023.08 1022.88 1022.68 1022.52 1022.40 1022.24 1022.16 1022.04 1021.92 1021.68 1021.40 1021.08 1020.76 1020.28 1020.00 1019.64 1019.00 1018.36 1017.68 1016.80 1016.00 1015.60 1015.20 1014.88 1014.56 1014.16 1013.80 1013.52 1013.24 1012.84 1012.40 1012.04 1011.64 1011.20 1010.28 1009.48 1009.28 1009.16 1009.16 1009.40 1009.56 1009.64 1009.92 1010.28 1010.56 1010.60 1010.84 1010.92 1010.72 1010.48 1010.28 1010.36 1010.40 1010.20
1024.48 1024.40 1024.28 1024.12 1024.04 1023.96 1023.88 1023.72 1023.56 1023.36 1023.20 1023.00 1022.84 1022.64 1022.52 1022.40 1022.32 1022.12 1021.92 1021.64 1021.40 1021.12 1020.64 1020.20 1019.92 1019.40 1018.80 1018.08 1017.16 1016.44 1015.96 1015.60 1015.28 1014.96 1014.64 1014.24 1013.88 1013.52 1013.20 1012.84 1012.48 1012.24 1011.72 1011.04 1010.48 1009.96 1009.36 1009.12 1009.24 1009.52 1009.68 1009.88 1010.32 1010.44 1010.56 1010.88 1010.88 1010.72 1010.72 1010.52 1010.40 1010.40 1010.40
1024.76 1024.68 1024.60 1024.52 1024.44 1024.36 1024.24 1024.08 1023.92 1023.76 1023.60 1023.40 1023.16 1023.04 1022.88 1022.68 1022.48 1022.32 1022.12 1021.92 1021.56 1021.44 1021.00 1020.52 1020.20 1019.76 1019.24 1018.68 1018.00 1017.32 1016.76 1016.16 1015.72 1015.40 1015.04 1014.60 1014.28 1013.92 1013.48 1013.04 1012.68 1012.48 1012.12 1011.36 1010.72 1010.12 1009.60 1009.20 1009.08 1009.52 1009.76 1009.96 1010.28 1010.48 1010.80 1010.84 1010.80 1010.88 1010.68 1010.48 1010.44 1010.44 1010.48
1025.08 1025.00 1024.96 1024.92 1024.84 1024.72 1024.60 1024.52 1024.36 1024.08 1023.88 1023.68 1023.52 1023.36 1023.12 1022.96 1022.80 1022.52 1022.36 1022.20 1021.84 1021.60 1021.28 1020.84 1020.44 1020.16 1019.60 1019.08 1018.52 1017.88 1017.36 1016.76 1016.16 1015.80 1015.48 1015.16 1014.80 1014.40 1013.88 1013.40 1013.08 1012.88 1012.44 1011.72 1010.52 1009.96 1009.56 1009.24 1008.72 1009.04 1009.52 1009.88 1010.40 1010.68 1010.88 1010.92 1010.80 1010.76 1010.64 1010.56 1010.76 1010.68 1010.80
1025.36 1025.32 1025.28 1025.24 1025.12 1025.04 1024.96 1024.76 1024.56 1024.36 1024.16 1024.00 1023.80 1023.60 1023.44 1023.28 1023.12 1022.92 1022.68 1022.40 1022.16 1021.88 1021.52 1021.16 1020.80 1020.44 1020.04 1019.56 1019.12 1018.52 1017.88 1017.36 1016.92 1016.64 1016.28 1015.84 1015.24 1014.80 1014.48 1014.00 1013.28 1012.92 1012.44 1011.52 1010.60 1009.84 1009.40 1009.48 1008.80 1009.12 1009.40 1009.76 1010.16 1010.76 1010.96 1011.04 1011.00 1010.84 1010.88 1011.04 1011.36 1011.48 1011.60
1025.56 1025.56 1025.56 1025.56 1025.48 1025.36 1025.24 1025.08 1024.88 1024.64 1024.48 1024.28 1024.04 1023.84 1023.68 1023.56 1023.40 1023.20 1022.96 1022.68 1022.44 1022.16 1021.84 1021.52 1021.16 1020.76 1020.40 1019.96 1019.52 1019.08 1018.52 1018.20 1017.84 1017.36 1016.92 1016.40 1016.00 1015.52 1014.96 1014.52 1014.04 1013.52 1012.72 1011.80 1010.92 1010.16 1009.68 1009.72 1009.36 1009.40 1009.72 1010.12 1010.32 1010.76 1011.12 1011.36 1011.44 1011.28 1011.28 1011.40 1011.56 1011.72 1011.88
1025.76 1025.84 1025.84 1025.80 1025.76 1025.68 1025.56 1025.40 1025.20 1025.04 1024.80 1024.60 1024.36 1024.20 1024.04 1023.84 1023.72 1023.48 1023.20 1022.92 1022.72 1022.48 1022.16 1021.72 1021.60 1021.08 1020.72 1020.32 1019.96 1019.60 1019.24 1018.88 1018.52 1017.92 1017.44 1016.96 1016.56 1016.20 1015.88 1015.48 1014.92 1014.32 1013.44 1012.48 1011.80 1011.04 1010.60 1010.32 1010.00 1010.08 1010.32 1010.28 1010.44 1010.68 1011.12 1011.40 1011.60 1011.68 1011.80 1011.84 1011.92 1012.12 1012.36
1026.04 1026.08 1026.12 1026.12 1026.08 1026.00 1025.92 1025.72 1025.52 1025.32 1025.12 1024.84 1024.64 1024.48 1024.36 1024.20 1024.00 1023.80 1023.48 1023.16 1022.96 1022.72 1022.48 1022.08 1021.76 1021.52 1021.08 1020.72 1020.32 1019.96 1019.68 1019.36 1018.84 1018.24 1018.04 1017.68 1017.48 1017.24 1016.76 1016.20 1015.48 1014.72 1014.08 1013.36 1012.68 1012.20 1011.92 1011.84 1011.20 1011.36 1011.36 1011.36 1011.40 1011.36 1011.28 1011.40 1011.72 1012.08 1012.28 1012.32 1012.44 1012.80 1013.00
1026.32 1026.36 1026.36 1026.36 1026.32 1026.28 1026.16 1026.04 1025.88 1025.72 1025.48 1025.28 1025.04 1024.80 1024.68 1024.52 1024.32 1024.12 1023.96 1023.64 1023.24 1023.00 1022.72 1022.52 1022.04 1021.76 1021.44 1021.04 1020.64 1020.32 1020.00 1019.60 1019.24 1018.92 1018.56 1018.40 1018.12 1017.72 1017.28 1016.84 1016.24 1015.40 1014.96 1014.44 1013.80 1013.36 1013.16 1013.24 1012.72 1012.20 1011.96 1011.88 1011.88 1012.00 1012.20 1012.12 1012.04 1012.36 1012.68 1012.92 1013.08 1013.28 1013.52
Wind_Speed
6 6 6 5 5 4 5 6 6 5 4 4 5 6 4 4 4 5 5 5 5 6 6 7 8 8 7 6 7 9 7 6 7 8 8 6 8 6 7 8 7 3 3 2 1 7 5 6 5 3 3 6 6 8 9 8 8 8 8 7 7 7 7
5 5 5 5 6 6 6 6 6 5 4 2 2 3 4 5 5 5 5 5 4 5 6 7 7 8 9 8 7 6 6 7 7 8 5 6 6 7 6 8 7 6 5 4 2 1 3 5 5 8 6 4 4 5 6 6 7 7 8 8 8 8 7
6 6 6 7 6 5 6 7 6 5 4 4 4 3 3 3 3 4 5 5 5 6 6 7 8 8 9 7 7 8 8 7 5 5 6 5 7 6 4 6 8 7 6 4 5 4 1 3 5 8 7 9 9 7 6 7 7 7 7 7 8 8 8
8 8 9 9 7 7 7 6 6 6 5 6 5 5 4 4 3 3 4 5 5 6 7 7 6 7 7 6 4 6 6 7 6 8 8 7 6 6 7 6 8 8 9 9 9 7 6 4 4 5 7 9 11 8 8 8 7 7 7 7 8 8 8
8 7 7 7 7 7 7 7 6 5 6 5 6 6 6 4 3 3 4 5 6 6 7 6 6 6 6 5 6 7 8 8 7 7 7 9 10 8 9 8 8 8 8 8 8 8 9 7 8 6 8 6 5 7 3 6 6 7 7 8 8 8 8
7 6 6 6 6 6 6 7 7 7 6 6 6 6 7 4 2 4 5 5 6 6 6 6 6 6 6 5 6 6 6 8 8 8 8 9 9 9 9 9 8 8 10 9 6 8 7 6 7 6 5 7 8 7 5 7 6 6 7 8 8 8 8
4 4 4 5 5 5 6 6 6 5 5 6 6 6 5 6 5 5 5 6 6 6 6 6 5 5 6 6 5 6 7 8 6 8 9 10 9 10 8 8 9 10 9 7 7 6 8 7 6 8 6 5 5 6 3 6 5 5 6 6 7 7 7
4 4 4 4 5 6 6 6 6 6 6 7 7 6 6 6 6 6 5 6 6 6 5 6 6 6 6 6 6 6 5 5 8 8 8 9 9 10 10 10 9 9 10 9 7 9 8 9 9 8 8 7 3 4 6 5 5 11 7 7 7 7 8
3 4 5 5 5 5 5 6 6 7 7 7 8 8 8 7 7 6 6 6 6 6 6 6 6 6 5 6 6 5 7 6 7 8 8 9 11 11 11 10 10 10 9 8 9 9 9 9 8 7 8 8 9 6 4 5 6 8 8 6 5 7 8
4 4 4 4 6 6 6 6 6 7 7 8 8 8 9 9 8 7 7 7 7 7 6 6 6 6 6 6 6 7 8 7 6 8 8 8 8 8 8 9 8 8 8 8 8 8 8 7 7 7 8 11 9 9 7 7 8 8 8 9 7 7 7
5 6 5 4 5 5 6 7 7 8 8 8 8 8 9 10 10 10 8 7 6 6 6 6 6 6 6 6 7 7 8 7 7 6 7 8 9 8 9 9 8 8 9 9 9 9 8 7 5 7 8 8 7 10 8 9 9 8 7 7 7 6 8
6 7 6 5 5 6 7 7 8 8 8 10 10 10 10 10 9 10 10 10 8 7 6 6 6 6 6 6 6 7 7 7 8 8 7 8 8 9 10 11 9 8 9 10 9 8 8 7 5 6 7 6 7 9 9 7 6 6 6 8 8 6 9
7 6 7 6 7 8 8 9 9 9 9 9 9 10 10 11 10 11 10 10 12 10 8 7 7 6 6 6 6 7 7 8 9 9 8 7 7 7 8 9 10 9 7 7 9 8 8 8 6 7 7 7 8 7 6 6 8 7 7 7 7 7 10
8 7 7 8 9 9 9 9 9 9 8 9 10 11 11 11 10 11 11 11 14 13 13 13 13 11 8 7 6 7 8 8 8 7 6 8 8 8 9 8 8 9 8 8 7 7 7 7 7 8 7 6 7 7 6 6 6 5 1 0 3 6 9
8 8 8 9 10 9 9 9 9 9 9 9 10 11 11 10 10 11 10 10 11 9 10 9 10 9 10 12 11 8 8 8 8 8 7 8 7 8 7 7 8 7 7 8 7 8 6 6 6 7 7 7 7 7 6 6 6 5 4 1 0 1 7
7 8 9 9 10 10 10 10 10 10 10 9 9 9 10 11 11 11 11 9 11 10 11 10 9 10 9 11 11 12 11 7 7 7 6 8 7 7 7 8 9 7 7 8 8 8 7 7 6 7 8 7 7 7 8 9 9 7 7 5 4 2 4
10 10 11 10 11 11 10 9 9 10 10 9 10 10 10 11 10 11 11 11 10 11 12 12 12 11 11 11 12 12 12 12 10 8 7 7 6 5 6 7 9 7 7 7 8 8 8 7 8 7 7 8 9 10 10 9 9 6 4 7 6 8 10
10 11 11 10 11 11 10 9 9 11 11 11 11 11 11 10 10 12 11 13 9 11 11 11 12 13 12 11 11 11 11 11 12 10 7 7 8 8 8 9 9 7 7 9 10 9 7 9 8 9 10 10 11 10 7 8 9 8 9 10 8 5 5
10 10 9 9 10 9 9 9 9 9 11 11 11 11 11 10 11 11 11 12 11 11 11 11 11 11 12 12 11 11 10 10 10 11 10 7 7 7 8 9 8 7 8 10 11 8 7 9 9 10 11 10 9 8 10 8 9 10 9 9 10 7 4
8 7 8 8 7 8 9 9 9 10 9 9 11 11 12 12 11 11 11 11 11 11 11 12 12 13 13 12 11 12 12 11 11 9 11 10 8 7 8 8 8 8 8 9 9 8 8 9 9 11 11 11 11 9 9 8 9 11 11 9 8 10 10
6 6 6 6 7 7 7 7 8 8 8 9 10 10 11 11 10 10 10 10 11 10 11 12 14 15 13 11 12 11 11 11 11 10 10 11 9 7 7 7 8 7 8 8 8 8 10 11 10 10 10 10 10 10 9 7 8 9 10 9 10 10 8
5 5 5 6 6 7 6 6 6 7 7 8 8 9 9 10 11 11 11 11 11 10 10 12 12 14 14 15 11 11 11 11 11 11 10 10 9 7 6 6 7 7 7 9 10 11 12 11 8 9 10 11 11 9 9 7 8 9 9 9 9 8 9
6 5 6 6 5 6 7 6 6 6 7 8 8 8 9 9 10 12 13 12 12 10 10 9 21 26 20 14 13 11 10 9 10 10 10 10 10 7 5 5 7 12 12 12 12 13 14 13 13 12 8 8 7 7 7 7 8 9 9 9 9 9 9
4 6 6 6 5 5 7 7 7 6 6 7 8 9 9 10 10 10 13 12 12 11 10 13 26 21 22 22 16 11 10 10 9 10 10 9 10 9 8 6 6 9 10 12 13 15 15 16 17 15 10 12 12 11 9 8 7 8 9 9 9 9 11
8 8 7 7 6 5 4 6 7 7 7 7 8 8 10 9 9 9 10 11 12 12 10 20 24 24 24 24 20 14 8 7 8 8 9 9 9 9 9 9 8 6 5 8 9 9 11 14 15 13 12 16 16 13 10 10 8 6 6 8 8 9 9
8 9 9 8 7 5 5 5 6 7 8 6 6 8 9 9 9 9 10 11 11 11 10 21 23 25 24 24 22 17 9 9 8 7 7 8 9 9 9 8 8 8 6 9 10 8 7 8 11 13 11 11 13 14 12 12 14 12 11 11 9 9 12
9 9 9 9 8 8 7 7 6 5 5 5 7 7 8 10 9 9 10 10 9 10 11 20 24 25 24 25 23 16 10 10 12 10 11 10 9 11 11 11 10 8 6 7 7 7 7 7 6 6 7 7 6 8 12 16 14 16 13 11 11 12 11
9 9 9 8 8 9 8 8 8 7 6 6 6 7 7 8 9 9 9 9 9 10 11 21 23 25 25 25 24 14 12 10 11 11 10 9 9 9 11 11 12 12 10 7 7 7 8 7 4 4 4 5 7 8 7 5 6 8 8 10 12 14 13
9 8 9 8 9 9 8 8 8 7 7 7 6 5 6 5 8 9 9 10 10 11 11 20 23 24 25 25 23 10 10 10 11 10 10 11 10 10 9 9 10 12 12 11 10 10 9 6 4 5 4 3 3 3 1 1 4 7 6 8 10 11 8
8 8 8 8 9 9 9 9 8 7 7 7 7 8 8 7 6 7 10 10 10 10 11 17 22 23 24 26 18 11 10 8 10 10 9 11 11 10 9 12 10 11 11 11 14 18 13 10 6 5 4 4 3 3 1 3 5 2 2 5 5 5 5
8 8 8 9 8 8 7 7 7 7 7 7 8 7 6 7 7 7 9 10 11 10 11 15 22 23 23 24 19 11 9 10 11 11 11 12 11 11 14 22 19 13 12 10 15 15 14 11 6 6 7 6 4 4 2 1 4 6 9 11 11 10 10
7 7 8 8 7 8 7 7 6 6 7 6 7 6 7 7 7 8 8 8 15 13 10 13 20 22 23 23 18 11 10 9 11 13 12 12 11 11 13 14 20 18 14 13 14 12 10 12 8 7 7 6 5 4 2 2 5 6 4 6 6 6 6
6 7 7 7 7 7 6 7 8 7 7 6 7 7 6 7 8 8 8 9 9 10 11 12 16 22 22 22 22 14 10 12 13 12 12 11 12 12 12 12 15 22 21 19 16 12 5 11 6 5 7 7 8 6 2 1 2 5 6 7 7 7 7
7 6 6 6 5 6 6 6 7 7 7 7 7 8 9 7 8 8 8 8 9 10 10 12 15 21 21 21 22 18 11 12 12 10 10 11 12 12 13 14 13 22 23 22 20 18 13 8 5 6 6 5 5 7 6 6 7 8 7 7 8 7 7
6 6 5 6 6 7 6 6 6 6 6 6 8 9 8 8 8 8 8 9 9 9 12 17 13 17 21 21 20 21 12 11 12 9 11 11 12 13 13 13 13 20 24 23 24 23 23 14 9 6 8 13 16 15 9 7 6 6 7 7 7 7 7
5 5 5 6 6 6 5 6 6 6 6 7 8 9 9 8 8 9 9 9 8 9 10 11 17 15 19 20 20 19 19 14 16 11 10 12 12 11 10 12 15 25 24 25 25 25 25 20 13 11 14 13 12 11 8 7 7 7 7 7 8 8 7
5 4 5 5 5 5 6 6 6 6 6 6 7 8 8 8 8 9 10 9 10 9 9 9 13 18 17 20 18 19 18 19 18 11 10 9 9 10 11 12 14 23 24 24 24 24 24 21 14 18 17 16 15 12 7 6 8 8 7 8 8 8 8
Wind_Direction
16 3 355 346 352 347 351 356 346 329 335 344 338 326 315 283 251 244 243 234 222 218 231 244 231 225 230 218 228 238 236 232 213 218 217 189 190 212 207 221 223 216 253 291 201 179 159 172 198 198 188 191 195 200 200 199 196 195 190 194 194 188 188
14 7 348 3 9 3 15 3 10 5 4 342 274 278 270 265 255 236 237 245 226 231 242 252 250 236 228 224 220 233 223 226 224 227 218 214 214 222 195 219 217 216 209 231 247 142 146 167 195 184 178 180 222 224 208 207 207 201 194 194 198 192 186
13 4 10 5 360 359 13 6 354 3 357 346 313 287 288 284 280 265 242 239 232 246 242 246 256 255 240 231 214 233 225 223 231 251 239 222 225 236 223 241 206 206 214 233 251 215 198 194 174 192 188 177 193 207 199 209 209 207 199 196 198 197 191
16 16 10 2 353 359 6 3 354 341 337 325 317 313 307 295 289 286 278 247 227 234 247 248 249 252 254 246 225 232 243 227 221 226 225 223 224 225 218 221 227 211 200 202 206 198 186 174 171 195 190 198 206 196 210 204 207 208 200 193 198 200 194
23 18 9 354 351 347 354 355 342 339 337 325 317 315 313 318 317 311 289 262 257 255 251 248 252 254 248 217 215 226 238 242 235 226 226 227 220 217 214 216 225 223 235 224 208 189 188 199 183 183 187 187 211 219 174 197 209 207 202 200 201 199 193
22 14 2 358 356 345 353 347 345 343 335 335 328 319 313 305 283 290 288 273 260 255 264 271 265 261 257 230 211 206 220 236 231 228 230 231 224 218 219 218 222 222 227 231 220 198 201 184 182 172 199 173 190 197 190 168 205 210 206 206 198 198 191
16 4 1 3 351 353 356 344 344 343 334 328 318 316 302 300 300 292 285 273 264 265 261 258 261 266 269 263 246 228 220 228 233 233 234 236 230 226 221 221 220 226 233 221 219 223 195 176 184 191 172 195 189 186 157 181 181 181 231 220 202 194 191
21 12 16 8 1 5 356 352 352 349 351 340 334 318 318 310 301 302 285 272 278 277 273 268 266 264 261 262 260 255 248 234 228 227 234 241 240 234 228 224 224 222 225 226 213 222 210 197 188 180 163 163 216 183 186 188 183 206 200 201 195 196 194
23 23 19 9 9 5 355 357 352 353 353 348 345 343 333 326 316 308 295 281 280 279 272 267 266 262 257 256 258 250 250 244 248 236 229 227 238 242 239 230 224 223 219 219 220 220 219 205 192 179 171 170 171 191 198 203 201 220 197 186 200 204 191
26 35 25 20 13 6 359 360 359 353 356 3 351 350 345 340 333 314 307 305 300 293 290 277 267 262 258 254 258 258 258 248 234 242 238 234 232 230 236 238 229 222 220 218 223 222 219 212 197 177 172 188 189 178 182 206 214 207 201 192 186 207 190
27 18 12 18 17 8 1 2 2 1 3 357 353 349 347 350 348 343 328 311 299 299 293 288 278 272 265 256 254 256 257 254 242 230 228 231 238 232 235 237 229 224 221 217 221 218 221 219 201 163 188 202 191 199 188 192 216 203 199 196 193 178 188
27 24 14 7 12 14 14 9 6 2 360 3 357 354 351 350 351 350 349 340 325 310 306 296 286 278 267 259 252 260 261 254 249 244 231 222 225 225 227 227 224 226 213 217 220 216 220 211 192 184 209 191 207 218 189 192 206 231 186 197 201 175 176
29 25 18 16 22 19 18 13 11 5 7 1 358 358 357 355 351 355 351 350 352 342 326 315 305 288 276 261 262 264 266 255 247 243 244 232 231 229 223 221 221 226 215 212 221 219 219 208 194 197 204 199 214 216 183 181 204 218 205 203 186 179 174
31 24 22 29 31 25 17 15 10 10 6 7 4 4 360 354 355 353 351 9 21 14 9 5 354 338 310 286 267 266 266 261 261 263 252 245 238 235 231 227 222 219 208 209 215 211 210 195 181 193 193 196 213 217 196 183 197 221 310 35 154 186 178
40 35 37 36 37 28 22 18 13 9 11 11 12 6 359 358 1 354 356 19 16 10 4 3 356 358 355 347 333 298 262 253 256 261 253 257 245 233 228 228 232 220 202 212 206 209 206 194 177 178 194 192 207 215 208 180 197 190 212 28 52 310 179
48 44 43 41 36 31 25 20 18 13 14 8 11 10 3 4 3 -0 2 9 20 9 3 356 353 351 347 346 340 336 324 292 277 273 262 259 257 239 224 225 230 217 200 206 212 213 202 201 193 190 190 189 199 197 203 198 186 187 177 186 140 127 171
48 45 44 38 38 33 27 24 18 18 13 7 9 5 8 8 8 7 5 3 25 12 5 2 354 351 344 340 339 333 328 322 301 272 267 263 264 254 239 240 239 221 200 204 215 216 206 200 197 196 195 184 197 199 200 191 189 163 164 159 189 174 183
49 46 45 42 41 36 32 27 26 23 18 16 12 8 7 8 12 13 10 2 9 16 7 1 356 350 345 339 331 327 325 321 315 301 270 259 252 248 248 245 247 226 201 208 221 216 203 195 191 191 195 199 200 198 187 180 180 177 172 180 181 200 185
51 49 47 46 42 40 35 30 27 28 26 22 16 15 12 12 13 13 9 7 5 8 5 1 356 349 342 337 331 324 318 314 312 311 296 262 252 244 248 252 247 226 201 208 219 215 190 187 187 193 200 207 209 193 192 184 175 190 192 186 174 164 180
51 47 46 45 43 39 36 31 30 30 27 28 25 21 18 15 12 10 8 5 4 2 1 1 356 352 343 336 329 323 316 314 309 310 308 291 267 251 244 249 251 234 218 212 217 210 205 206 199 199 198 202 205 190 189 179 176 184 196 191 185 180 178
52 49 46 46 47 44 37 34 33 32 29 28 26 22 17 16 13 11 8 7 4 2 359 357 354 348 343 334 327 319 313 310 308 304 304 299 279 263 256 250 244 238 224 217 215 211 209 217 205 201 198 200 204 197 191 179 176 183 190 195 183 180 183
52 47 46 48 47 42 36 32 31 32 33 31 28 24 19 14 11 10 10 9 7 5 5 0 357 346 337 332 328 316 311 305 302 300 299 299 292 276 260 250 251 246 244 241 221 217 216 218 207 210 204 192 200 198 196 183 182 184 193 191 187 177 174
50 45 43 46 46 43 37 30 27 27 30 30 26 24 21 18 17 13 9 7 7 5 2 360 349 342 339 334 325 317 307 297 297 295 296 296 296 290 275 261 253 256 248 239 232 223 220 218 212 214 198 184 197 203 200 195 189 189 189 190 189 173 179
36 39 37 36 39 43 39 35 30 27 26 26 24 22 20 19 18 14 12 8 7 5 360 355 345 341 341 340 337 321 311 305 300 296 295 295 298 302 297 272 240 236 222 233 236 227 220 217 217 216 179 180 192 191 192 196 204 201 187 191 190 186 189
39 35 32 28 26 30 34 37 37 31 27 25 23 22 24 20 16 14 12 13 11 4 355 353 347 346 345 343 341 337 318 302 293 288 295 297 301 302 293 285 275 264 237 216 227 231 230 230 229 221 198 200 207 199 186 185 186 194 200 195 191 195 197
38 35 31 29 22 20 22 30 34 31 29 23 21 27 23 18 18 12 13 12 8 359 356 355 350 349 347 346 344 345 335 322 307 299 293 297 302 300 290 280 283 274 256 239 234 235 235 234 231 226 204 223 228 215 203 208 203 192 187 197 204 193 197
41 37 35 33 32 28 23 21 16 15 17 19 27 27 23 21 17 14 11 7 360 360 2 358 353 351 350 349 346 347 340 342 356 357 2 2 355 354 341 330 304 277 259 249 236 234 233 232 235 212 201 190 198 229 220 218 210 200 192 196 196 206 207
44 40 37 35 32 32 28 22 18 10 10 8 16 18 18 20 16 12 7 3 2 1 3 360 357 355 354 353 347 350 355 358 4 1 359 356 359 355 351 348 344 330 309 266 254 245 237 241 230 211 211 206 190 201 212 216 187 195 196 195 201 212 209
47 43 40 34 32 28 26 23 19 9 10 7 6 9 14 20 18 13 6 4 3 -0 358 2 1 359 357 355 346 353 352 1 4 357 355 356 355 357 351 354 346 340 330 318 294 255 236 237 177 202 191 150 90 76 72 287 269 257 245 220 211 213 212
50 46 38 37 31 26 22 16 15 8 11 8 9 13 12 8 6 10 10 8 6 359 357 0 2 1 0 358 355 355 357 358 7 2 355 357 354 351 354 357 354 346 331 321 329 323 264 217 201 179 180 169 134 93 5 30 31 132 113 78 81 63 38
52 43 38 33 25 20 15 15 14 5 16 6 10 5 7 9 7 8 11 10 7 4 357 357 2 1 3 2 360 357 350 356 5 9 3 4 359 356 355 359 2 354 336 320 314 307 288 232 203 170 181 170 129 103 54 69 111 96 101 93 85 80 73
48 44 40 28 23 20 15 15 5 9 13 12 11 3 9 13 9 9 10 9 8 10 359 358 1 2 3 5 5 1 356 353 7 9 6 3 0 1 359 355 357 356 343 328 327 317 291 242 214 168 162 138 123 120 159 187 138 126 109 82 50 59 47
49 48 41 31 24 21 11 18 15 16 13 14 12 12 13 15 14 8 2 6 8 5 3 2 1 2 4 6 6 7 3 6 12 5 6 3 3 9 2 358 356 358 349 354 353 338 328 274 211 142 137 142 135 129 153 63 41 102 89 82 76 66 62
58 48 44 40 28 24 17 17 13 19 18 15 23 23 21 17 16 9 4 4 6 6 5 5 359 2 3 5 7 9 8 10 3 6 6 11 11 5 6 3 3 357 358 8 10 10 15 348 80 100 101 111 110 108 94 80 58 59 77 78 75 70 65
57 57 45 39 36 28 14 15 16 15 16 23 29 28 23 22 18 12 8 6 7 4 4 8 5 1 3 3 7 11 13 7 358 2 10 19 13 15 7 5 7 1 7 17 22 24 21 15 55 83 115 122 117 112 110 99 85 72 70 66 67 62 57
61 55 51 44 44 34 14 19 12 12 18 23 30 31 26 22 21 17 13 9 6 5 1 -0 4 4 0 2 4 8 12 13 4 12 16 18 15 8 2 7 11 15 16 19 27 30 29 16 42 56 63 64 66 78 91 95 91 77 67 66 67 62 54
67 57 57 54 44 40 26 20 18 14 11 20 25 30 25 22 23 22 16 7 5 3 1 2 358 2 0 359 2 7 9 12 14 14 17 19 11 9 10 8 14 23 23 22 27 31 33 26 33 44 52 53 53 48 47 56 76 81 75 63 63 64 56